Rutland, VT

4:21 PM EST on December 13, 2017 (GMT -0500)
Rutland State

Weather History for KRUT - February, 2014

Change the Weather History Date:

Wednesday, February 12, 2014

  Actual Average Record
Temperature  
Mean Temperature 7 °F -  
Max Temperature 23 °F - 59 °F (1999)
Min Temperature -9 °F - -24 °F (1979)
Degree Days  
Heating Degree Days 58    
Month to date heating degree days 563  
Since 1 July heating degree days 4970  
Cooling Degree Days 0    
Month to date cooling degree days 0  
Year to date cooling degree days 0  
Moisture  
Dew Point -6 °F    
Average Humidity 67    
Maximum Humidity 100    
Minimum Humidity 34    
Precipitation  
Precipitation 0.00 in - 0.77 in (1998)
Month to date precipitation 0.34  
Year to date precipitation 2.37  
Sea Level Pressure  
Sea Level Pressure 30.42 in    
Wind  
Wind Speed 5 mph (ESE)    
Max Wind Speed 13 mph    
Max Gust Speed 17 mph    
Visibility 10 miles    
Events      
T = Trace of Precipitation, MM = Missing Value Source: NWS Daily Summary

Daily Weather History Graph

Daily Weather History Graph

Search for Another Location

Airport or City:

Trip Planner

Search our weather history database for the weather conditions in past years. The results will help you decide how hot, cold, wet, or windy it might be!

Date:

Astronomy

Feb. 12, 2014 Rise Set
Actual Time 6:54 AM EST 5:18 PM EST
Civil Twilight 6:24 AM EST 5:47 PM EST
Nautical Twilight 5:51 AM EST 6:21 PM EST
Astronomical Twilight 5:18 AM EST 6:54 PM EST
Moon 3:28 PM EST (2/12) 5:11 AM EST (2/12)
Length of Visible Light 11h 23m
Length of Day
10h 23m
Waxing Gibbous, 95% of the Moon is Illuminated
Feb 12
Waxing Gibbous
Feb 14
Full
Feb 22
Last Quarter
Mar 1
New
Mar 8
First Quarter

Hourly Weather History & Observations

Time (EST) Temp. Windchill Dew Point Humidity Pressure Visibility Wind Dir Wind Speed Gust Speed Precip Events Conditions
12:15 AM -0.4 °F -8.3 °F -0.4 °F 100% 30.45 in 10.0 mi East 3.5 mph - N/A   Clear
12:35 AM -2.2 °F - -7.6 °F 78% 30.44 in 10.0 mi Calm Calm - N/A   Clear
12:55 AM -0.4 °F - -5.8 °F 78% 30.44 in 10.0 mi Calm Calm - N/A   Clear
1:15 AM -2.2 °F - -11.2 °F 66% 30.45 in 10.0 mi Calm Calm - N/A   Clear
1:35 AM -2.2 °F -10.4 °F -2.2 °F 100% 30.45 in 10.0 mi ESE 3.5 mph - N/A   Clear
1:55 AM -2.2 °F - -2.2 °F 100% 30.46 in 10.0 mi Calm Calm - N/A   Clear
2:15 AM -4.0 °F -16.3 °F -9.4 °F 78% 30.45 in 10.0 mi SE 5.8 mph - N/A   Clear
2:35 AM -4.0 °F -16.3 °F -9.4 °F 78% 30.46 in 10.0 mi SE 5.8 mph - N/A   Clear
2:55 AM -4.0 °F -14.6 °F -7.6 °F 85% 30.47 in 10.0 mi SE 4.6 mph - N/A   Clear
3:15 AM -4.0 °F -14.6 °F -9.4 °F 78% 30.47 in 10.0 mi ESE 4.6 mph - N/A   Clear
3:35 AM -5.8 °F - -11.2 °F 77% 30.46 in 10.0 mi Calm Calm - N/A   Clear
3:55 AM -7.6 °F - -7.6 °F 100% 30.47 in 10.0 mi Calm Calm - N/A   Clear
4:15 AM -7.6 °F -16.5 °F -13.0 °F 77% 30.47 in 10.0 mi ESE 3.5 mph - N/A   Clear
4:35 AM -7.6 °F - -7.6 °F 100% 30.47 in 10.0 mi Calm Calm - N/A   Clear
4:55 AM -9.4 °F -24.3 °F -18.4 °F 65% 30.47 in 10.0 mi SE 6.9 mph - N/A   Clear
5:15 AM -7.6 °F -23.4 °F -7.6 °F 100% 30.48 in 10.0 mi SE 8.1 mph - N/A   Clear
5:35 AM -7.6 °F -23.4 °F -9.4 °F 92% 30.48 in 10.0 mi SE 8.1 mph - N/A   Clear
5:55 AM -7.6 °F -25.7 °F -16.6 °F 65% 30.49 in 10.0 mi ESE 10.4 mph - N/A   Clear
6:15 AM -7.6 °F - -7.6 °F 100% 30.50 in 10.0 mi Calm Calm - N/A   Clear
6:35 AM -9.4 °F -25.6 °F -22.0 °F 54% 30.50 in 10.0 mi SE 8.1 mph - N/A   Clear
6:55 AM -9.4 °F -24.3 °F -9.4 °F 100% 30.50 in 10.0 mi ESE 6.9 mph - N/A   Clear
7:15 AM -7.6 °F -25.7 °F -14.8 °F 71% 30.49 in 10.0 mi ESE 10.4 mph - N/A   Clear
7:35 AM -7.6 °F -23.4 °F -11.2 °F 84% 30.49 in 10.0 mi East 8.1 mph - N/A   Clear
7:55 AM -7.6 °F -24.6 °F -9.4 °F 92% 30.50 in 10.0 mi ESE 9.2 mph - N/A   Clear
8:15 AM -7.6 °F -18.8 °F -13.0 °F 77% 30.50 in 10.0 mi SE 4.6 mph - N/A   Clear
8:35 AM -4.0 °F -12.4 °F -9.4 °F 78% 30.51 in 10.0 mi East 3.5 mph - N/A   Clear
8:55 AM -2.2 °F - -7.6 °F 78% 30.52 in 10.0 mi Calm Calm - N/A   Clear
9:15 AM -2.2 °F -10.4 °F -11.2 °F 66% 30.52 in 10.0 mi NE 3.5 mph - N/A   Clear
9:35 AM -0.4 °F - -0.4 °F 100% 30.53 in 10.0 mi Calm Calm - N/A   Clear
9:55 AM 1.4 °F - -7.6 °F 66% 30.53 in 10.0 mi Calm Calm - N/A   Clear
10:15 AM 3.2 °F - -5.8 °F 66% 30.51 in 10.0 mi Calm Calm - N/A   Clear
10:35 AM 6.8 °F - -0.4 °F 72% 30.49 in 8.0 mi Calm Calm - N/A   Clear
10:55 AM 6.8 °F -2.0 °F -5.8 °F 56% 30.48 in 10.0 mi NNE 4.6 mph - N/A   Clear
11:15 AM 8.6 °F 0.1 °F -5.8 °F 52% 30.48 in 10.0 mi NNE 4.6 mph - N/A   Clear
11:35 AM 10.4 °F - -5.8 °F 48% 30.46 in 10.0 mi Calm Calm - N/A   Clear
11:55 AM 10.4 °F 2.2 °F -5.8 °F 48% 30.46 in 10.0 mi NNE 4.6 mph - N/A   Clear
12:15 PM 14.0 °F - -2.2 °F 49% 30.47 in 10.0 mi Calm Calm - N/A   Clear
12:35 PM 15.8 °F - -4.0 °F 41% 30.46 in 10.0 mi Calm Calm - N/A   Clear
12:55 PM 15.8 °F - -2.2 °F 45% 30.45 in 10.0 mi Calm Calm - N/A   Clear
1:15 PM 19.4 °F - -2.2 °F 39% 30.43 in 10.0 mi Calm Calm - N/A   Clear
1:35 PM 17.6 °F 9.3 °F -0.4 °F 45% 30.41 in 10.0 mi NNE 5.8 mph - N/A   Clear
1:55 PM 19.4 °F - -0.4 °F 42% 30.39 in 10.0 mi Calm Calm - N/A   Clear
2:15 PM 21.2 °F - -0.4 °F 39% 30.38 in 10.0 mi Calm Calm - N/A   Clear
2:35 PM 19.4 °F 12.8 °F -2.2 °F 39% 30.39 in 10.0 mi NNE 4.6 mph - N/A   Clear
2:55 PM 21.2 °F - -2.2 °F 36% 30.38 in 10.0 mi Calm Calm - N/A   Clear
3:15 PM 23.0 °F 17.0 °F -2.2 °F 33% 30.38 in 10.0 mi WNW 4.6 mph - N/A   Clear
3:35 PM 21.2 °F 13.6 °F -2.2 °F 36% 30.38 in 10.0 mi North 5.8 mph - N/A   Clear
3:55 PM 21.2 °F 14.9 °F -0.4 °F 39% 30.37 in 10.0 mi NNW 4.6 mph - N/A   Clear
4:15 PM 21.2 °F 13.6 °F -0.4 °F 39% 30.37 in 10.0 mi North 5.8 mph - N/A   Clear
4:35 PM 19.4 °F 9.5 °F -0.4 °F 42% 30.36 in 10.0 mi North 8.1 mph - N/A   Clear
4:55 PM 19.4 °F 12.8 °F -0.4 °F 42% 30.35 in 10.0 mi NE 4.6 mph - N/A   Clear
5:15 PM 19.4 °F - -0.4 °F 42% 30.36 in 10.0 mi Calm Calm - N/A   Clear
5:35 PM 17.6 °F - -0.4 °F 45% 30.35 in 10.0 mi Calm Calm - N/A   Clear
5:55 PM 17.6 °F 9.3 °F 1.4 °F 49% 30.36 in 10.0 mi SSE 5.8 mph - N/A   Clear
6:15 PM 19.4 °F 6.6 °F -5.8 °F 33% 30.35 in 10.0 mi SE 12.7 mph - N/A   Clear
6:35 PM 19.4 °F 7.9 °F -5.8 °F 33% 30.34 in 10.0 mi SE 10.4 mph - N/A   Clear
6:55 PM 19.4 °F 7.2 °F -5.8 °F 33% 30.34 in 10.0 mi SSE 11.5 mph - N/A   Clear
7:15 PM 19.4 °F 8.6 °F -5.8 °F 33% 30.34 in 10.0 mi SE 9.2 mph - N/A   Clear
7:35 PM 17.6 °F 5.7 °F -5.8 °F 35% 30.34 in 10.0 mi ESE 10.4 mph - N/A   Clear
7:55 PM 17.6 °F 5.7 °F -5.8 °F 35% 30.34 in 10.0 mi SE 10.4 mph - N/A   Clear
8:15 PM 15.8 °F 2.1 °F -5.8 °F 38% 30.34 in 10.0 mi ESE 12.7 mph - N/A   Clear
8:35 PM 17.6 °F 6.4 °F -5.8 °F 35% 30.34 in 10.0 mi SE 9.2 mph - N/A   Clear
8:55 PM 17.6 °F 5.7 °F -5.8 °F 35% 30.33 in 10.0 mi SE 10.4 mph - N/A   Clear
9:15 PM 17.6 °F 7.3 °F -4.0 °F 38% 30.32 in 10.0 mi SE 8.1 mph - N/A   Clear
9:35 PM 17.6 °F 5.7 °F -4.0 °F 38% 30.32 in 10.0 mi SSE 10.4 mph - N/A   Clear
9:55 PM 17.6 °F 4.3 °F -4.0 °F 38% 30.33 in 10.0 mi SE 12.7 mph 17.3 mph N/A   Clear
10:15 PM 17.6 °F 9.3 °F -5.8 °F 35% 30.32 in 10.0 mi SSE 5.8 mph - N/A   Clear
10:35 PM 15.8 °F 3.4 °F -5.8 °F 38% 30.32 in 10.0 mi SE 10.4 mph - N/A   Clear
10:55 PM 15.8 °F 6.1 °F -5.8 °F 38% 30.33 in 10.0 mi SE 6.9 mph - N/A   Clear
11:15 PM 15.8 °F 5.1 °F -4.0 °F 41% 30.30 in 10.0 mi SE 8.1 mph - N/A   Clear
11:35 PM 15.8 °F 7.2 °F -2.2 °F 45% 30.30 in 10.0 mi SSE 5.8 mph - N/A   Clear
11:55 PM 17.6 °F 6.4 °F -2.2 °F 42% 30.29 in 10.0 mi South 9.2 mph - N/A   Clear